Date,TemperatureHighF,TemperatureAvgF,TemperatureLowF,DewpointHighF,DewpointAvgF,DewpointLowF,HumidityHigh,HumidityAvg,HumidityLow,PressureMaxIn,PressureMinIn,WindSpeedMaxMPH,WindSpeedAvgMPH,GustSpeedMaxMPH,PrecipitationSumIn
2013-3-1,34,28,19,-100,-100,-100,0,0,100,0.00,40.00,0,-999,0,0.01
2013-3-2,41,32,25,-100,-100,-100,0,0,100,0.00,40.00,0,-999,0,0.01
2013-3-3,39,33,23,-100,-100,-100,0,0,100,0.00,40.00,0,-999,0,0.00
2013-3-4,20,14,6,-100,-100,-100,0,0,100,0.00,40.00,0,-999,0,0.00
2013-3-5,32,20,5,-100,-100,-100,0,0,100,0.00,40.00,0,-999,0,0.01
2013-3-6,42,34,23,-100,-100,-100,0,0,100,0.00,40.00,0,-999,0,0.01
2013-3-7,42,35,29,-100,-100,-100,0,0,100,0.00,40.00,0,-999,0,0.00
2013-3-8,45,37,32,-100,-100,-100,0,0,100,0.00,40.00,0,-999,0,0.00
2013-3-9,28,22,18,-100,-100,-100,0,0,100,0.00,40.00,0,-999,0,0.00
2013-3-10,34,24,14,-100,-100,-100,0,0,100,0.00,40.00,0,-999,0,0.01
2013-3-11,30,25,20,-100,-100,-100,0,0,100,0.00,40.00,0,-999,0,0.02
2013-3-12,34,23,13,-100,-100,-100,0,0,100,0.00,40.00,0,-999,0,0.02
2013-3-13,45,36,28,-100,-100,-100,0,0,100,0.00,40.00,0,-999,0,0.01
2013-3-14,50,42,35,-100,-100,-100,0,0,100,0.00,40.00,0,-999,0,0.00
2013-3-15,53,43,34,-100,-100,-100,0,0,100,0.00,40.00,0,-999,0,0.00
2013-3-16,41,33,28,-100,-100,-100,0,0,100,0.00,40.00,0,-999,0,0.00
2013-3-17,34,26,15,-100,-100,-100,0,0,100,0.00,40.00,0,-999,0,0.00
2013-3-18,28,21,13,-100,-100,-100,0,0,100,0.00,40.00,0,-999,0,0.00
2013-3-19,27,21,14,-100,-100,-100,0,0,100,0.00,40.00,0,-999,0,0.01
2013-3-20,41,30,15,-100,-100,-100,0,0,100,0.00,40.00,0,-999,0,0.01
2013-3-21,33,27,20,-100,-100,-100,0,0,100,0.00,40.00,0,-999,0,0.02
2013-3-22,24,17,11,-100,-100,-100,0,0,100,0.00,40.00,0,-999,0,0.02
2013-3-23,18,9,3,-100,-100,-100,0,0,100,0.00,40.00,0,-999,0,0.01
2013-3-24,13,8,3,-100,-100,-100,0,0,100,0.00,40.00,0,-999,0,0.00
2013-3-25,26,16,-1,-100,-100,-100,0,0,100,0.00,40.00,0,-999,0,0.01
2013-3-26,35,26,14,-100,-100,-100,0,0,100,0.00,40.00,0,-999,0,0.01
2013-3-27,42,33,27,-100,-100,-100,0,0,100,0.00,40.00,0,-999,0,0.01
2013-3-28,45,37,30,-100,-100,-100,0,0,100,0.00,40.00,0,-999,0,0.00
2013-3-29,49,41,31,-100,-100,-100,0,0,100,0.00,40.00,0,-999,0,0.00
2013-3-30,37,33,29,-100,-100,-100,0,0,100,0.00,40.00,0,-999,0,0.01
2013-3-31,47,36,26,-100,-100,-100,0,0,100,0.00,40.00,0,-999,0,0.01